• In Portugal
  • List of Countries
  • For 7 days
  • Water Temperature
  • Satellite Maps
  • Weather Map
  • Weather Widgets
  • user-avatar
    Login

    Hourly Weather Rundu

    Today, 23 April, Monday

    Time Temperature Precipitation Wind Pressure Humidity
    00:00 +20°C° 0 mm 1 mps 668 mmHg 37%
    01:00 +20°C° 0 mm 1 mps 668 mmHg 38%
    02:00 +19°C° 0 mm 1 mps 668 mmHg 39%
    03:00 +19°C° 0 mm 1 mps 668 mmHg 40%
    04:00 +18°C° 0 mm 1 mps 668 mmHg 40%
    05:00 +19°C° 0 mm 1 mps 669 mmHg 40%
    06:00 +19°C° 0 mm 1 mps 669 mmHg 40%
    07:00 +20°C° 0 mm 1 mps 670 mmHg 40%
    08:00 +23°C° 0 mm 2 mps 670 mmHg 35%
    09:00 +27°C° 0 mm 2 mps 671 mmHg 30%
    10:00 +30°C° 0 mm 2 mps 672 mmHg 25%
    11:00 +31°C° 0 mm 2 mps 672 mmHg 22%
    12:00 +32°C° 0 mm 2 mps 671 mmHg 20%
    13:00 +34°C° 0 mm 2 mps 671 mmHg 17%
    14:00 +34°C° 0 mm 2 mps 670 mmHg 18%
    15:00 +34°C° 0 mm 3 mps 670 mmHg 18%
    16:00 +33°C° 0 mm 3 mps 669 mmHg 19%
    17:00 +30°C° 0 mm 2 mps 669 mmHg 23%
    18:00 +27°C° 0 mm 2 mps 669 mmHg 27%
    19:00 +24°C° 0 mm 2 mps 669 mmHg 32%
    20:00 +23°C° 0 mm 2 mps 669 mmHg 33%
    21:00 +21°C° 0 mm 2 mps 669 mmHg 34%
    22:00 +21°C° 0 mm 2 mps 669 mmHg 35%
    23:00 +21°C° 0 mm 1 mps 669 mmHg 36%

    Tomorrow, 24 April, Tuesday

    Time Temperature Precipitation Wind Pressure Humidity
    00:00 +21°C° 0 mm 1 mps 669 mmHg 36%
    01:00 +21°C° 0 mm 1 mps 669 mmHg 37%
    02:00 +20°C° 0 mm 1 mps 669 mmHg 38%
    03:00 +20°C° 0 mm 1 mps 668 mmHg 39%
    04:00 +19°C° 0 mm 1 mps 668 mmHg 41%
    05:00 +20°C° 0 mm 1 mps 669 mmHg 42%
    06:00 +20°C° 0 mm 1 mps 669 mmHg 43%
    07:00 +20°C° 0 mm 1 mps 670 mmHg 44%
    08:00 +24°C° 0 mm 2 mps 671 mmHg 37%
    09:00 +27°C° 0 mm 3 mps 671 mmHg 30%
    10:00 +31°C° 0 mm 3 mps 672 mmHg 23%
    11:00 +33°C° 0 mm 3 mps 672 mmHg 22%
    12:00 +34°C° 0 mm 4 mps 671 mmHg 20%
    13:00 +35°C° 0 mm 4 mps 671 mmHg 18%
    14:00 +34°C° 0 mm 4 mps 670 mmHg 19%
    15:00 +34°C° 0 mm 3 mps 670 mmHg 20%
    16:00 +33°C° 0 mm 3 mps 669 mmHg 22%
    17:00 +30°C° 0 mm 3 mps 669 mmHg 27%
    18:00 +27°C° 0 mm 2 mps 669 mmHg 33%
    19:00 +24°C° 0 mm 2 mps 669 mmHg 39%
    20:00 +24°C° 0 mm 1 mps 669 mmHg 41%
    21:00 +23°C° 0 mm 1 mps 669 mmHg 43%
    22:00 +22°C° 0 mm 1 mps 670 mmHg 45%
    23:00 +22°C° 0 mm 1 mps 669 mmHg 47%

    Day after tomorrow, 25 April, Wednesday

    Time Temperature Precipitation Wind Pressure Humidity
    00:00 +21°C° 0 mm 1 mps 669 mmHg 48%
    01:00 +20°C° 0 mm 1 mps 669 mmHg 50%
    02:00 +20°C° 0 mm 1 mps 669 mmHg 52%
    03:00 +19°C° 0 mm 1 mps 668 mmHg 54%
    04:00 +17°C° 0 mm 0 mps 668 mmHg 56%
    05:00 +19°C° 0 mm 1 mps 669 mmHg 55%
    06:00 +20°C° 0 mm 1 mps 669 mmHg 53%
    07:00 +21°C° 0 mm 1 mps 670 mmHg 52%
    08:00 +24°C° 0 mm 1 mps 671 mmHg 43%
    09:00 +28°C° 0 mm 1 mps 672 mmHg 35%
    10:00 +31°C° 0 mm 2 mps 672 mmHg 26%
    11:00 +32°C° 0 mm 2 mps 672 mmHg 23%
    12:00 +34°C° 0 mm 3 mps 671 mmHg 21%
    13:00 +34°C° 0 mm 3 mps 670 mmHg 18%
    14:00 +34°C° 0 mm 3 mps 670 mmHg 19%
    15:00 +34°C° 0 mm 3 mps 669 mmHg 20%
    16:00 +33°C° 0 mm 3 mps 669 mmHg 21%
    17:00 +30°C° 0 mm 3 mps 669 mmHg 26%
    18:00 +27°C° 0 mm 2 mps 669 mmHg 31%
    19:00 +24°C° 0 mm 2 mps 669 mmHg 36%
    20:00 +23°C° 0 mm 2 mps 669 mmHg 38%
    21:00 +21°C° 0 mm 2 mps 669 mmHg 40%
    22:00 +22°C° 0 mm 1 mps 669 mmHg 42%
    23:00 +21°C° 0 mm 1 mps 669 mmHg 44%

    26 April, Thursday

    Time Temperature Precipitation Wind Pressure Humidity
    00:00 +20°C° 0 mm 1 mps 668 mmHg 45%
    01:00 +20°C° 0 mm 1 mps 668 mmHg 47%
    02:00 +19°C° 0 mm 1 mps 668 mmHg 48%
    03:00 +19°C° 0 mm 1 mps 668 mmHg 49%
    04:00 +19°C° 0 mm 1 mps 668 mmHg 50%
    05:00 +19°C° 0 mm 1 mps 668 mmHg 49%
    06:00 +20°C° 0 mm 1 mps 669 mmHg 48%
    07:00 +21°C° 0 mm 1 mps 670 mmHg 47%
    08:00 +24°C° 0 mm 2 mps 670 mmHg 40%
    09:00 +27°C° 0 mm 3 mps 671 mmHg 33%
    10:00 +30°C° 0 mm 3 mps 672 mmHg 25%
    11:00 +31°C° 0 mm 3 mps 671 mmHg 23%
    12:00 +33°C° 0 mm 3 mps 670 mmHg 21%
    13:00 +34°C° 0 mm 3 mps 669 mmHg 19%
    14:00 +34°C° 0 mm 3 mps 669 mmHg 19%
    15:00 +33°C° 0 mm 3 mps 669 mmHg 20%
    16:00 +33°C° 0 mm 3 mps 668 mmHg 20%
    17:00 +29°C° 0 mm 2 mps 668 mmHg 25%
    18:00 +27°C° 0 mm 2 mps 668 mmHg 29%
    19:00 +24°C° 0 mm 2 mps 668 mmHg 34%
    20:00 +23°C° 0 mm 2 mps 668 mmHg 36%
    21:00 +21°C° 0 mm 2 mps 668 mmHg 37%
    22:00 +20°C° 0 mm 2 mps 669 mmHg 39%
    23:00 +20°C° 0 mm 2 mps 668 mmHg 41%

    27 April, Friday

    Time Temperature Precipitation Wind Pressure Humidity
    00:00 +20°C° 0 mm 1 mps 668 mmHg 43%
    01:00 +19°C° 0 mm 1 mps 668 mmHg 44%
    02:00 +19°C° 0 mm 1 mps 668 mmHg 46%
    03:00 +19°C° 0 mm 1 mps 668 mmHg 48%
    04:00 +18°C° 0 mm 1 mps 668 mmHg 49%
    05:00 +19°C° 0 mm 1 mps 668 mmHg 50%
    06:00 +19°C° 0 mm 1 mps 669 mmHg 50%
    07:00 +19°C° 0 mm 2 mps 669 mmHg 50%
    08:00 +23°C° 0 mm 2 mps 670 mmHg 43%
    09:00 +27°C° 0 mm 3 mps 671 mmHg 35%
    10:00 +30°C° 0 mm 3 mps 672 mmHg 27%
    11:00 +31°C° 0 mm 3 mps 671 mmHg 24%
    12:00 +33°C° 0 mm 3 mps 670 mmHg 22%
    13:00 +34°C° 0 mm 3 mps 670 mmHg 19%
    14:00 +33°C° 0 mm 3 mps 669 mmHg 20%
    15:00 +33°C° 0 mm 3 mps 669 mmHg 20%
    16:00 +33°C° 0 mm 3 mps 669 mmHg 21%
    17:00 +29°C° 0 mm 2 mps 668 mmHg 26%
    18:00 +26°C° 0 mm 2 mps 668 mmHg 31%
    19:00 +24°C° 0 mm 2 mps 668 mmHg 36%
    20:00 +23°C° 0 mm 2 mps 668 mmHg 39%
    21:00 +22°C° 0 mm 1 mps 668 mmHg 41%
    22:00 +21°C° 0 mm 1 mps 669 mmHg 43%
    23:00 +21°C° 0 mm 1 mps 668 mmHg 45%

    28 April, Saturday

    Time Temperature Precipitation Wind Pressure Humidity
    00:00 +20°C° 0 mm 1 mps 668 mmHg 47%
    01:00 +20°C° 0 mm 1 mps 668 mmHg 48%
    02:00 +19°C° 0 mm 1 mps 668 mmHg 50%
    03:00 +19°C° 0 mm 1 mps 668 mmHg 52%
    04:00 +18°C° 0 mm 1 mps 668 mmHg 54%
    05:00 +19°C° 0 mm 1 mps 669 mmHg 53%
    06:00 +19°C° 0 mm 1 mps 669 mmHg 53%
    07:00 +20°C° 0 mm 1 mps 670 mmHg 52%
    08:00 +23°C° 0 mm 2 mps 671 mmHg 44%
    09:00 +27°C° 0 mm 3 mps 671 mmHg 35%
    10:00 +30°C° 0 mm 4 mps 672 mmHg 27%
    11:00 +32°C° 0 mm 4 mps 671 mmHg 25%
    12:00 +33°C° 0 mm 4 mps 671 mmHg 22%
    13:00 +34°C° 0 mm 4 mps 670 mmHg 20%
    14:00 +34°C° 0 mm 3 mps 670 mmHg 21%
    15:00 +33°C° 0 mm 3 mps 669 mmHg 22%
    16:00 +33°C° 0 mm 3 mps 669 mmHg 22%
    17:00 +29°C° 0 mm 3 mps 669 mmHg 28%
    18:00 +26°C° 0 mm 2 mps 669 mmHg 33%
    19:00 +24°C° 0 mm 2 mps 669 mmHg 38%
    20:00 +23°C° 0 mm 1 mps 669 mmHg 40%
    21:00 +22°C° 0 mm 1 mps 669 mmHg 42%
    22:00 +21°C° 0 mm 1 mps 669 mmHg 44%
    23:00 +21°C° 0 mm 1 mps 669 mmHg 46%
    Show more